Zurück zum Katalog

THOR ABLESTAR DEB

AktivVLEO
NORAD 660·DEBRIS·🇺🇸 United States

Gestartet Jun 29, 1961 von Cape Canaveral Space Force Station

Loading…

Nächste Überflüge (nächste 24 Stunden)

TLE

AktuellSource: Space-Track

Epoche: Sep 14, 2026, 09:53 UTC

1 00660U 61015HM  26257.41234694  .00036129  00000-0  13805-2 0  9990
2 00660  66.4829 254.6096 0006700 192.7590 167.3387 15.26429881399021

Verfolge THOR ABLESTAR DEB in Echtzeit mit AllMySat

Download on the App Store